User: anonymous   Login
Location: Monroe
(41.9160°N, 83.3980°W)
Time: 11:33:00
(UTC-05:00)
Language:

ISS - Orbit

View from above orbital plane
View from above orbital plane
View from above satellite
View from above satellite

Ground track
Ground track

The orbit data is extracted from the following two-line orbital elements,

1 25544U 98067A   14326.39954381  .00026533  00000-0  44893-3 0  4432
2 25544 051.6469 035.2119 0006965 053.7094 049.5006 15.51356230915873
Epoch (UTC): 22 November 2014 09:35:20
Eccentricity: 0.0006965
inclination: 51.6469°
perigee height: 408 km
apogee height: 417 km
right ascension of ascending node: 35.2119°
argument of perigee: 53.7094°
revolutions per day: 15.51356230
mean anomaly at epoch: 49.5006°
orbit number at epoch: 91587

The dashed part of the orbit path shows where the satellite is in the earth's shadow,  

DLR